Stampede Pass, WA

8:42 PM PST on November 17, 2017 (GMT -0800)
Stampede Pass

Weather History for KSMP - June, 2014

Change the Weather History Date:

Wednesday, June 18, 2014

  Actual Average Record
Temperature  
Mean Temperature 42 °F -  
Max Temperature 53 °F 55 °F 69 °F (2004)
Min Temperature 39 °F 40 °F 37 °F (1997)
Degree Days  
Heating Degree Days 22    
Moisture  
Dew Point 40 °F    
Average Humidity 93    
Maximum Humidity 97    
Minimum Humidity 86    
Precipitation  
Precipitation 0.00 in - - ()
Sea Level Pressure  
Sea Level Pressure 30.08 in    
Wind  
Wind Speed 7 mph (SW)    
Max Wind Speed 9 mph    
Max Gust Speed -    
Visibility 2 miles    
Events Fog    
Averages and records for this station are not official NWS values.
T = Trace of Precipitation, MM = Missing Value Source: NWS Daily Summary

Daily Weather History Graph

Daily Weather History Graph

Search for Another Location

Airport or City:

Trip Planner

Search our weather history database for the weather conditions in past years. The results will help you decide how hot, cold, wet, or windy it might be!

Date:

Astronomy

Jun. 18, 2014 Rise Set
Actual Time 5:08 AM PDT 9:04 PM PDT
Civil Twilight 4:28 AM PDT 9:44 PM PDT
Nautical Twilight 3:32 AM PDT 10:40 PM PDT
Astronomical Twilight 2:07 AM PDT 12:06 AM PDT
Moon 12:14 AM PDT 12:02 PM PDT
Length of Visible Light 17h 16m
Length of Day
15h 56m
Waning Gibbous, 61% of the Moon is Illuminated
Jun 18
Waning Gibbous
Jun 19
Last Quarter
Jun 27
New
Jul 5
First Quarter
Jul 12
Full

Hourly Weather History & Observations

Time (PDT) Temp. Windchill Dew Point Humidity Pressure Visibility Wind Dir Wind Speed Gust Speed Precip Events Conditions
12:56 AM 42.1 °F 38.4 °F 41.0 °F 96% 30.11 in 0.2 mi Variable 5.8 mph - N/A Fog Fog
1:56 AM 42.1 °F 36.6 °F 39.9 °F 92% 30.10 in 0.2 mi WSW 9.2 mph - N/A Fog Fog
2:56 AM 41.0 °F 35.2 °F 39.0 °F 93% 30.10 in 0.2 mi WSW 9.2 mph - N/A Fog Fog
3:56 AM 39.9 °F 36.7 °F 39.0 °F 97% 30.10 in 0.2 mi Variable 4.6 mph - N/A Fog Fog
4:56 AM 39.9 °F 35.8 °F 37.9 °F 93% 30.09 in 0.2 mi Variable 5.8 mph - N/A Fog Fog
5:56 AM 39.9 °F 35.1 °F 37.9 °F 93% 30.08 in 0.2 mi Variable 6.9 mph - N/A Fog Fog
6:56 AM 39.9 °F 35.1 °F 37.9 °F 93% 30.08 in 0.2 mi Variable 6.9 mph - N/A Fog Fog
7:56 AM 39.9 °F 34.5 °F 39.0 °F 97% 30.08 in 0.2 mi West 8.1 mph - N/A Fog Fog
8:56 AM 41.0 °F 35.8 °F 39.0 °F 93% 30.08 in 0.2 mi WSW 8.1 mph - N/A Fog Fog
9:56 AM 41.0 °F 35.2 °F 39.9 °F 96% 30.09 in 0.2 mi WSW 9.2 mph - N/A Fog Fog
12:22 PM 46.4 °F 42.9 °F 44.6 °F 93% 30.06 in 7.0 mi Variable 6.9 mph - N/A   Overcast
8:56 PM 45.0 °F 42.6 °F 41.0 °F 86% 30.07 in 10.0 mi Variable 4.6 mph - N/A   Clear
9:56 PM 44.1 °F 40.1 °F 41.0 °F 89% 30.08 in 7.0 mi SW 6.9 mph - N/A   Partly Cloudy
10:06 PM 42.8 °F 38.6 °F 41.0 °F 93% 30.06 in 2.5 mi SW 6.9 mph - N/A   Mostly Cloudy
10:11 PM 42.8 °F 38.0 °F 41.0 °F 93% 30.06 in 1.2 mi SW 8.1 mph - N/A   Mostly Cloudy
10:18 PM 42.8 °F 38.0 °F 41.0 °F 93% 30.06 in 0.8 mi SW 8.1 mph - N/A   Mist
10:56 PM 43.0 °F 38.8 °F 41.0 °F 93% 30.07 in 0.5 mi SW 6.9 mph - N/A Fog Fog
11:13 PM 42.8 °F 38.6 °F 41.0 °F 93% 30.05 in 0.2 mi SW 6.9 mph - N/A Fog Fog
11:37 PM 42.8 °F 38.6 °F 41.0 °F 93% 30.05 in 0.5 mi SW 6.9 mph - N/A Fog Fog
11:49 PM 42.8 °F 38.6 °F 41.0 °F 93% 30.05 in 1.2 mi SW 6.9 mph - N/A   Overcast
11:56 PM 43.0 °F 39.5 °F 41.0 °F 93% 30.06 in 1.0 mi Variable 5.8 mph - N/A   Overcast